Regional Weather Roundup
Issued by NWS

Home | Current Version | Previous Version | Text Only | Print | Product List | Glossary On
Versions: 1 2 3 4 5 6 7 8 9 10 11 12 13 14 15 16 17 18 19 20 21 22 23 24 25 26 27 28 29 30 31 32 33 34 35 36 37 38 39 40 41 42 43 44 45 46 47 48 49 50
000
ASUS46 KPQR 251110
RWROR

OREGON REGIONAL WEATHER ROUNDUP
NATIONAL WEATHER SERVICE PORTLAND OR
400 AM PDT FRI JUL 25 2014

NOTE: "FAIR" INDICATES FEW OR NO CLOUDS BELOW 12,000 FEET WITH
NO SIGNIFICANT WEATHER AND/OR OBSTRUCTIONS TO VISIBILITY.

ORZ001>013-251200-
NORTHWEST OREGON


CITY           SKY/WX    TMP DP  RH WIND       PRES   REMARKS
ASTORIA        CLEAR     50  49  96 SE3       30.17F
NEWPORT        MOCLDY    52  50  93 E3        30.18S
PORTLAND       PTCLDY    56  52  86 NW6       30.16F
VANCOUVER WA   CLEAR     56  50  80 NW5       30.15F
SCAPPOOSE      PTCLDY    56  50  80 NW7       30.15F
HILLSBORO      CLEAR     51  48  89 W7        30.15F
AURORA         CLEAR     53  50  89 NE3       30.16F
MCMINNVILLE    CLEAR     51  49  92 CALM      30.16F
SALEM          CLEAR     55  51  86 NW6       30.14F
CORVALLIS      CLEAR     52  50  93 NW7       30.15F
EUGENE         CLEAR     52  50  93 N6        30.14S
$$

ORZ021-028-251200-
SOUTHWEST OREGON


CITY           SKY/WX    TMP DP  RH WIND       PRES   REMARKS
NORTH BEND     CLEAR     54  54 100 CALM      30.13F
BROOKINGS      SUNNY     59  52  77 CALM      29.99S
ROSEBURG       CLEAR     56  50  80 CALM      30.11S
SEXTON SUMMIT  CLEAR     51  45  79 N9        30.12F
MEDFORD        CLEAR     59  49  69 CALM      30.09S
$$

ORZ009-041-251200-
COLUMBIA GORGE


CITY           SKY/WX    TMP DP  RH WIND       PRES   REMARKS
TROUTDALE      MOCLDY    53  50  89 CALM      30.15S
THE DALLES     CLEAR     53  48  83 W5        30.11S
$$

ORZ029>031-042>050-061>064-251200-
EASTERN OREGON


CITY           SKY/WX    TMP DP  RH WIND       PRES   REMARKS
REDMOND        CLEAR     42  38  85 S5        30.15S
BEND           SUNNY     43  39  87 SW3       30.16F
KLAMATH FALLS  CLEAR     52  43  71 N8        30.12F
LAKEVIEW       CLEAR     54  36  50 N17G23    30.15F
HERMISTON      CLEAR     50  47  89 S3        30.10S
PENDLETON      CLEAR     49  45  86 E7        30.11F
JOHN DAY       SUNNY     49  41  74 CALM      30.16S
MEACHAM        CLEAR     37  35  92 CALM      30.15F
LA GRANDE      CLEAR     50  36  57 CALM      30.12F
BAKER CITY     CLEAR     44  40  85 S5        30.14F
BURNS          CLEAR     45  35  68 CALM      30.14S
ROME             N/A     46  22  38 CALM      30.12R
ONTARIO        CLEAR     60  42  51 W8        30.07S
$$


USA.gov is the U.S. government's official web portal to all federal, state and local government web resources and services.